Regional Weather Roundup
Issued by NWS

Home | Current Version | Previous Version | Graphics & Text | Print | Product List | Glossary On
Versions: 1 2 3 4 5 6 7 8 9 10 11 12 13 14 15 16 17 18 19 20 21 22 23 24 25 26 27 28 29 30 31 32 33 34 35 36 37 38 39 40 41 42 43 44 45 46 47 48 49 50
000
ASUS43 KBIS 252210
RWRND

NORTH DAKOTA REGIONAL WEATHER ROUNDUP
NATIONAL WEATHER SERVICE BISMARCK ND
400 PM CST SAT FEB 25 2017

NOTE: "FAIR" INDICATES FEW OR NO CLOUDS BELOW 12,000 FEET WITH NO
SIGNIFICANT WEATHER AND/OR OBSTRUCTIONS TO VISIBILITY.


NDZ001>003-009>011-017-252300-
NORTHWEST NORTH DAKOTA

CITY           SKY/WX    TMP DP  RH WIND       PRES   REMARKS
WILLISTON      LGT SNOW  27  24  89 SW7       29.68F FOG     WCI  19
MINOT          LGT SNOW  23  16  74 N7        29.74F WCI  15
$$

NDZ018>021-031>035-040>046-252300-
SOUTHWEST NORTH DAKOTA

CITY           SKY/WX    TMP DP  RH WIND       PRES   REMARKS
BISMARCK       FAIR      29  20  69 SW6       29.79S
DICKINSON      PTSUNNY   29  16  58 W12       29.67F WCI  19
GARRISON         N/A     24  19  81 S5        29.73F WCI  18
HETTINGER ARPT CLOUDY    32  14  47 W15       29.73F
$$

NDZ004>008-012>016-024-026-027-054-252300-
NORTHEAST NORTH DAKOTA

CITY           SKY/WX    TMP DP  RH WIND       PRES   REMARKS
GRAND FORKS    MOSUNNY   30  17  58 N15       29.77S WCI  19
GRND FRKS AFB  MOSUNNY   30  18  62 NW12      29.77S
DEVILS LAKE    FAIR      23  13  65 W16       29.75F WCI  10
$$

NDZ022-023-025-028>030-036>039-047>053-252300-
SOUTHEAST NORTH DAKOTA

CITY           SKY/WX    TMP DP  RH WIND       PRES   REMARKS
FARGO          CLOUDY    32  23  69 NW10      29.79F
JAMESTOWN      CLOUDY    27  20  75 NW13      29.77S WCI  16
$$




USA.gov is the U.S. government's official web portal to all federal, state and local government web resources and services.